GAF022 KLSV-KBGR

Flight info

Callsign GAF022
Flight time N/A
Altitude 32000
Route MMM8 MMM V235 MATZO V8 POBME BCE DVC PUB HYS J24 MCI J80 SPI ROD EWC CFB J190 ALB J49 BGR
Aircraft A400/H-SDE2E3FGHIJ4J5M1RWXY/LB1D1

Departure

Time 2026-04-11 17:56
Airport Nellis Air Force Base (KLSV)

Arrival

Time N/A
Airport Bangor International Airport (KBGR)
Time Latitude Longitude Altitude Speed Heading
2026-04-11 17:20 36.24696 -115.03429 1863 ft 0 kts 181°
2026-04-11 17:29 36.24697 -115.03429 1867 ft 0 kts 181°
2026-04-11 17:46 36.24696 -115.03429 1872 ft 0 kts 181°
2026-04-11 17:46 36.24683 -115.03429 1876 ft 3 kts 179°
2026-04-11 17:46 36.24650 -115.03412 1877 ft 5 kts 120°
2026-04-11 17:47 36.24646 -115.03375 1875 ft 7 kts 96°
2026-04-11 17:47 36.24616 -115.03317 1879 ft 9 kts 129°
2026-04-11 17:47 36.24581 -115.03261 1879 ft 8 kts 128°
2026-04-11 17:47 36.24565 -115.03216 1878 ft 4 kts 89°
2026-04-11 17:48 36.24554 -115.03141 1874 ft 3 kts 150°
2026-04-11 17:48 36.24527 -115.03133 1879 ft 5 kts 169°
2026-04-11 17:48 36.24490 -115.03133 1878 ft 8 kts 179°
2026-04-11 17:49 36.24487 -115.03133 1878 ft 0 kts 186°
2026-04-11 17:49 36.24525 -115.03131 1879 ft 11 kts 166°
2026-04-11 17:50 36.24562 -115.03151 1880 ft 3 kts 98°
2026-04-11 17:50 36.24562 -115.03112 1879 ft 6 kts 89°
2026-04-11 17:50 36.24561 -115.03055 1880 ft 6 kts 94°
2026-04-11 17:50 36.24559 -115.02996 1880 ft 8 kts 92°
2026-04-11 17:51 36.24557 -115.02921 1876 ft 10 kts 91°
2026-04-11 17:51 36.24554 -115.02805 1876 ft 0 kts 92°
2026-04-11 17:54 36.24553 -115.02748 1876 ft 11 kts 91°
2026-04-11 17:54 36.24546 -115.02659 1878 ft 2 kts 123°
2026-04-11 17:54 36.24543 -115.02656 1873 ft 1 kts 138°
2026-04-11 17:54 36.24536 -115.02652 1875 ft 1 kts 150°
2026-04-11 17:55 36.24532 -115.02651 1873 ft 0 kts 166°
2026-04-11 17:55 36.24527 -115.02654 1878 ft 2 kts 194°
2026-04-11 17:55 36.24522 -115.02658 1878 ft 1 kts 216°
2026-04-11 17:55 36.24471 -115.02720 1875 ft 39 kts 224°
2026-04-11 17:56 36.24019 -115.03219 1875 ft 129 kts 220°
2026-04-11 17:56 36.23190 -115.04082 2023 ft 175 kts 219°
2026-04-11 17:56 36.22258 -115.05170 2484 ft 195 kts 222°
2026-04-11 17:56 36.21558 -115.06675 3137 ft 215 kts 255°
2026-04-11 17:57 36.21864 -115.08616 3505 ft 255 kts 298°
2026-04-11 17:57 36.23324 -115.10028 3888 ft 290 kts 338°
2026-04-11 17:57 36.25366 -115.10117 4475 ft 300 kts 11°
2026-04-11 17:57 36.27382 -115.09458 5308 ft 298 kts 14°
2026-04-11 17:58 36.29393 -115.08885 6138 ft 295 kts
2026-04-11 17:58 36.31419 -115.08590 6820 ft 292 kts
2026-04-11 17:58 36.33423 -115.08123 7443 ft 298 kts 21°
2026-04-11 17:58 36.35065 -115.06608 8234 ft 303 kts 48°
2026-04-11 17:59 36.36361 -115.04535 9034 ft 306 kts 54°
2026-04-11 17:59 36.37606 -115.02316 9790 ft 312 kts 56°
2026-04-11 17:59 36.38830 -115.00057 10400 ft 319 kts 56°
2026-04-11 17:59 36.40061 -114.97756 10957 ft 327 kts 57°
2026-04-11 18:00 36.41327 -114.95381 11584 ft 332 kts 57°
2026-04-11 18:00 36.42605 -114.92980 12245 ft 336 kts 57°
2026-04-11 18:00 36.43906 -114.90533 12893 ft 341 kts 57°
2026-04-11 18:00 36.45216 -114.88067 13569 ft 344 kts 57°
2026-04-11 18:01 36.46544 -114.85563 14182 ft 348 kts 57°
2026-04-11 18:01 36.47886 -114.83032 14773 ft 352 kts 57°
2026-04-11 18:01 36.49237 -114.80480 15394 ft 356 kts 57°
2026-04-11 18:01 36.50607 -114.77891 16020 ft 359 kts 57°
2026-04-11 18:02 36.51991 -114.75274 16652 ft 363 kts 57°
2026-04-11 18:02 36.53383 -114.72641 17284 ft 367 kts 57°
2026-04-11 18:02 36.54790 -114.69976 17898 ft 371 kts 57°
2026-04-11 18:02 36.56212 -114.67282 18463 ft 375 kts 57°
2026-04-11 18:03 36.57651 -114.64552 19014 ft 378 kts 56°
2026-04-11 18:03 36.59101 -114.61799 19562 ft 382 kts 56°
2026-04-11 18:03 36.60547 -114.59053 20112 ft 385 kts 56°
2026-04-11 18:03 36.62041 -114.56212 20680 ft 389 kts 56°
2026-04-11 18:04 36.63505 -114.53426 21229 ft 392 kts 56°
2026-04-11 18:04 36.65005 -114.50569 21780 ft 395 kts 56°
2026-04-11 18:04 36.66515 -114.47691 22337 ft 398 kts 56°
2026-04-11 18:04 36.68038 -114.44785 22869 ft 402 kts 56°
2026-04-11 18:05 36.69577 -114.41846 23377 ft 405 kts 55°
2026-04-11 18:05 36.71121 -114.38896 23804 ft 408 kts 55°
2026-04-11 18:05 36.72676 -114.35922 24215 ft 411 kts 55°
2026-04-11 18:05 36.74241 -114.32925 24611 ft 413 kts 55°
2026-04-11 18:06 36.75809 -114.29920 25010 ft 415 kts 55°
2026-04-11 18:06 36.76855 -114.27904 25270 ft 417 kts 56°
2026-04-11 18:06 36.78391 -114.24830 25660 ft 419 kts 57°
2026-04-11 18:06 36.79902 -114.21709 26029 ft 421 kts 57°
2026-04-11 18:07 36.81404 -114.18558 26368 ft 424 kts 58°
2026-04-11 18:07 36.82907 -114.15385 26720 ft 425 kts 58°
2026-04-11 18:07 36.84418 -114.12196 27047 ft 428 kts 57°
2026-04-11 18:07 36.85941 -114.08989 27359 ft 429 kts 57°
2026-04-11 18:08 36.87470 -114.05773 27682 ft 431 kts 57°
2026-04-11 18:08 36.89010 -114.02539 27987 ft 433 kts 57°
2026-04-11 18:08 36.90550 -113.99306 28273 ft 435 kts 57°
2026-04-11 18:08 36.91580 -113.97142 28452 ft 437 kts 57°